Regional Weather Roundup
Issued by NWS Kansas City/Pleasant Hill, MO

Home | Current Version | Previous Version | Graphics & Text | Print | Product List | Glossary Off
Versions: 1 2 3 4 5 6 7 8 9 10 11 12 13 14 15 16 17 18 19 20 21 22 23 24 25 26 27 28 29 30 31 32 33 34 35 36 37 38 39 40 41 42 43 44 45 46 47 48 49 50

000
ASUS43 KEAX 201204
RWREAX

WEATHER ROUNDUP FOR EASTERN KANSAS AND NORTHWEST MISSOURI
NATIONAL WEATHER SERVICE KANSAS CITY/PLEASANT HILL MO
700 AM CDT SUN APR 20 2014

KSZ040-057-103>105-MOZ028-029-037-043-201300-
...KANSAS CITY METROPOLITAN AREA...

CITY           SKY/WX    TMP DP  RH WIND       PRES   REMARKS
K.C. INTL      PTCLDY    55  46  71 S13       30.09R
6HR MIN TEMP:  53; 6HR MAX TEMP:  60;

K.C. DOWNTOWN  PTCLDY    60  46  59 S7        30.09R
6HR MIN TEMP:  59; 6HR MAX TEMP:  66;

LEES SUMMIT    MOCLDY    58  45  62 S9        30.11R
6HR MIN TEMP:  58; 6HR MAX TEMP:  63;

OLATHE - IXD   CLEAR     53  45  74 S8        30.11S
6HR MIN TEMP:  51; 6HR MAX TEMP:  59;

OLATHE - OJC   PTCLDY    53  45  74 S7        30.10S
6HR MIN TEMP:  53; 6HR MAX TEMP:  58;

LAWRENCE       CLEAR     53  47  79 S7        30.09S

$$

MOZ001>008-011>017-020>025-030>033-038>040-044>046-053-054-201300-
...NORTHERN AND CENTRAL MISSOURI...

CITY           SKY/WX    TMP DP  RH WIND       PRES   REMARKS
ST. JOSEPH     PTCLDY    56  46  69 S5        30.06F
6HR MIN TEMP:  54; 6HR MAX TEMP:  60;

MOSBY          FAIR      52  45  76 CALM      30.10R
WHITEMAN AFB   NOT AVBL
CLINTON        MOCLDY    57  48  72 S7        30.14R
SEDALIA        MOCLDY    57  46  66 S9        30.14S
6HR MIN TEMP:  56; 6HR MAX TEMP:  60;

WARSAW         NOT AVBL
MARSHALL         N/A     57  48  72 S6        30.14S
CHILLICOTHE      N/A     56  43  61 S5        30.11R
6HR MIN TEMP:  52; 6HR MAX TEMP:  57;

MOBERLY        PTCLDY    57  41  54 S9        30.15R
KIRKSVILLE     PTCLDY    48  41  76 S7        30.13R
6HR MIN TEMP:  48; 6HR MAX TEMP:  52;


$$

MOZ041-047>049-056>058-063>065-088>090-097-201300-
...EASTERN AND SOUTHERN MISSOURI...

CITY           SKY/WX    TMP DP  RH WIND       PRES   REMARKS
ST. LOUIS INTL MOCLDY    52  41  66 E3        30.20S
6HR MIN TEMP:  52; 6HR MAX TEMP:  63;

SPIRIT OF STL  PTCLDY    45  42  89 CALM      30.19R
COLUMBIA       MOCLDY    55  42  61 S8        30.16R
JEFFERSON CITY MOCLDY    53  42  66 E5        30.16R
MEXICO         PTCLDY    50  43  76 S7        30.16S
HANNIBAL       MOCLDY    59  37  44 S7        30.15F
ROLLA          MOCLDY    53  42  66 SE7       30.17S
LEBANON        MOCLDY    57  45  62 S6        30.18S
OSAGE BEACH    MOCLDY    55  41  58 S8        30.18S
SPRINGFIELD    CLEAR     55  47  74 SE10      30.17R
BRANSON        MOCLDY    59  46  63 S6        30.20R
NEVADA         CLEAR     52  46  82 S6        30.15R
JOPLIN         PTCLDY    57  48  72 S7        30.15R
WEST PLAINS    MOCLDY    51  42  71 CALM      30.21R

$$

IAZ060-094-KSZ022-034>040-054-083-096-NEZ052-066-093-201300-
...KANSAS...SOUTHEAST NEBRASKA AND IOWA...

CITY           SKY/WX    TMP DP  RH WIND       PRES   REMARKS
TOPEKA         PTCLDY    60  48  64 S3        30.07S
6HR MIN TEMP:  59; 6HR MAX TEMP:  65;

MANHATTAN      PTCLDY    62  50  64 SW14      30.03S
EMPORIA        MOCLDY    57  48  72 S12       30.07S
CHANUTE        PTCLDY    55  49  80 S8        30.12R
WICHITA        MOCLDY    59  50  72 S12       30.05S
OMAHA          PTCLDY    59  47  64 SE9       29.98R
LINCOLN        MOCLDY    62  48  60 S12       29.97R
FALLS CITY     PTCLDY    59  48  67 S12       30.02S
LAMONI         PTCLDY    55  44  66 S8        30.07R
DES MOINES     PTCLDY    57  44  62 S10       30.05R

$$




USA.gov is the U.S. government's official web portal to all federal, state and local government web resources and services.